Find Starlink 2380

NORAD ID: 47799 Int'l Des: 2021-018 Owner: SPXS Country: US Constellation: starlink operational
LEOCIRCULARSTARLINK_TYPE

現在のビュー

3D地球を読み込み中...

About Starlink 2380

Starlink 2380 (NORAD 47799) is a starlink constellation satellite (v1.0) launched Mar 11, 2021 by SPXS of US. It operates in LEO, CIRCULAR, STARLINK_TYPE orbit with a mass of 260.00 kg.

Starlink 2380について

説明を読み込み中...

次回通過

Passes for default location (London). Set your location on the main map for personalized predictions.

高度履歴

Loading altitude history...

軌道要素

1 47799U 21018N 26167.14827875 .00010272 00000-0 34236-3 0 9995
2 47799 53.1582 134.1070 0001684 78.2407 281.8783 15.31694857291946
Epoch: Jun 16, 2026 • Age: 11 hours

現在のステータス

高度 471.9 km
速度 7.63 km/s
衛星直下点 32.02°N, 34.34°E
打ち上げ日 Mar 11, 2021
運用期間 5.2 years
タイプ internet

技術仕様

分類 Payload
質量 260.00 kg
乾燥質量 248.00 kg
総質量 260.00 kg
長さ 0.20 m
直径 2.80 m
スパン 9.00 m
形状 Box + pan
製造者 SPXS
バスタイプ Starlink
フェーズステータス In Orbit
所有者/国 SPXS/US

Most Searched